Location: Waco, TX
(31.5480°N, 97.1670°W)
Time: 14:58:34
(UTC-05:00)

ISS - Pass Details

Date: 15 August 2019
Orbit: 410 x 421 km, 51.6° (Epoch: 22 August)

Event Time Altitude Azimuth Distance (km) Brightness Sun altitude
Rises 10:23:32 0° 231° (SW) 2,340 -0.3 43.3°
Reaches altitude 10° 10:25:38 10° 236° (SW) 1,483 -1.2 43.8°
Maximum altitude 10:28:55 59° 316° (NW) 484 -3.1 44.4°
Drops below altitude 10° 10:32:15 10° 37° (NE) 1,496 -0.6 45.1°
Sets 10:34:22 0° 42° (NE) 2,364 0.3 45.6°
